Location: Plainartige
(45.6866°N, 1.7993°E)
Time: 02:29:02
(UTC+00:00)

RS-15 - Pass Details

Date: 06 July 2022
Orbit: 1881 x 2163 km, 64.8° (Epoch: 10 August)

Event Time Altitude Azimuth Distance (km) Brightness Sun altitude
Rises 22:19:03 0° 322° (NW) 5,699 12.0 -18.1°
Reaches altitude 10° 22:22:32 10° 323° (NW) 4,692 11.2 -18.4°
Maximum altitude 22:34:59 90° 51° (NE) 2,138 8.1 -19.2°
Enters shadow 22:43:20 25° 147° (SSE) 3,519 8.8 -19.6°
